Preview of NWS' New Version of Forecast
This preview is not operational and should not be used for support decisions.

Regional Weather Roundup (RWR)

Issued by National Weather Service (NWS)

                            
000
ASCA42 TJSJ 170710
RWRPR 
PUERTO RICO/U.S. VIRGIN ISLANDS HOURLY WEATHER ROUNDUP
NATIONAL WEATHER SERVICE SAN JUAN PR
300 AM AST MON JUN 17 2019

PRZ001>002-007>008-010-170800-
PUERTO RICO
  
CITY           SKY/WX    TMP DP  RH WIND       PRES   REMARKS
SAN JUAN LMM   PTCLDY    81  75  83 E6        30.05F                  
CEIBA          CLOUDY    82  75  78 NE8       30.07S                  
$$

VIZ001>002-170800-
U.S. VIRGIN ISLANDS
  
CITY           SKY/WX    TMP DP  RH WIND       PRES   REMARKS
CHARLOTTE AMA  CLEAR     81  73  78 E8        30.05S                  
CHRISTIANSTED  PTCLDY    79  73  83 NE8       30.05S                  
$$

HOURLY WEATHER ROUNDUP FOR THE NEWS MEDIA
  
CITY           SKY/WX    TMP DP  RH WIND       PRES   REMARKS
ORLANDO        FAIR      75  73  93 E3        30.05R                  
NEW YORK       CLOUDY    68  68 100 S6        29.87R                  
NEWARK         LGT RAIN  73  69  87 W3        29.86R                  
CHICAGO        CLOUDY    56  52  86 N8        29.93S                  
HARTFORD       MOCLDY    65  63  93 CALM      29.82R                  
BOSTON         MOCLDY    67  64  90 NW6       29.82                   
DALLAS         CLOUDY    69  64  84 SW5       29.88R                  
PHILADELPHIA   CLOUDY    69  69 100 SW3       29.88                   
LOS ANGELES    CLOUDY    63  56  78 SW8       29.89S                  
WASHINGTON DC  CLOUDY    75  68  78 SW6       29.89F